[[{"header":{"parameterUnit":"m.s-1","parameterCategory":1,"la1":30.2991,"la2":30.254,"lo1":-89.0895,"lo2":-89.0444,"dx":0.0017,"dy":0.0017,"nx":28,"ny":28,"refTime":"2022-12-14T15:00:00:Z","depth":0,"parameterNumber":2,"parameterNumberName":"U-component_of_WINDS"},"data":[0,0,0,0,0,0,0,0,0,0,0,0,0,0,0,0,0,0,0,0,0,0,0,0,0,0,0,0,0,0,0,0,0,0,0,0,0,0,0,0,0,0,0,0,0,0,0,0,0,0,0,0,0,0,0,0,0,0,2.0837,2.0838,0,2.09,2.09,2.0901,2.0871,2.087,2.0868,2.0866,2.0929,2.0932,2.0935,0,0,0,0,0,0,0,0,0,0,0,0,0,2.0693,2.0696,2.0837,2.0838,2.0839,2.09,2.09,2.0901,2.0871,2.0869,2.0868,2.0866,2.0928,2.0932,2.0936,0,0,0,0,0,0,0,0,0,0,0,0,0,2.0755,2.0697,2.0837,2.0831,2.0831,2.0899,2.09,2.0901,2.0872,2.0869,2.0867,2.0865,2.0927,2.0932,2.0936,2.1013,0,0,2.0951,2.0953,0,0,0,0,0,0,0,0,2.0752,2.0761,2.0831,2.0832,2.0832,2.0875,2.0872,2.0939,2.0872,2.0856,2.0866,2.0864,2.0913,2.0919,2.0936,2.1016,2.1019,2.0951,2.0954,2.0956,2.0957,0,0,0,0,0,0,0,2.0748,2.0758,2.0862,2.0832,2.0833,2.0826,2.0832,2.0885,2.0897,2.0858,2.0856,2.0863,2.0913,2.0931,2.0937,2.102,2.0951,2.0955,2.0958,2.096,2.1168,2.1171,0,0,0,0,0,0,2.0744,2.0754,2.086,2.0864,2.0785,2.083,2.0837,2.0864,2.0897,2.0899,2.0865,2.0862,2.0924,2.0931,2.0939,2.1032,2.0956,2.096,2.0963,2.1166,2.1169,2.1172,0,0,0,0,0,0,2.0741,2.0753,2.0857,2.0809,2.0821,2.0835,2.0865,2.0866,2.0885,2.0903,2.0905,2.0882,2.0923,2.0932,2.0995,2.1034,2.0963,2.0967,2.1162,2.1167,2.117,2.1218,0,0,0,0,0,0,2.0737,2.0752,2.0781,2.081,2.0824,2.0913,2.0868,2.0869,2.0893,2.0889,2.0919,2.0921,2.0922,2.0989,2.1,2.1039,2.0971,2.1159,2.1164,2.1169,2.1213,2.1224,2.1232,0,0,0,0,0,2.0731,2.0792,2.0783,2.0796,2.0861,2.0915,2.0923,2.0923,2.0896,2.0926,2.0938,2.092,2.1028,2.0995,2.1008,2.1049,2.1156,2.1163,2.1169,2.1209,2.1222,2.1232,0,0,0,0,0,0,2.0767,2.0795,2.0786,2.0857,2.0884,2.091,2.0947,2.0936,2.097,2.0965,2.0962,2.0969,2.1035,2.1048,2.1011,2.1126,2.1088,2.1097,2.1115,2.1127,2.1136,2.1131,2.0974,0,0,0,0,0,2.0784,2.0825,2.0848,2.0909,2.0923,2.0933,2.0956,2.0954,2.0981,2.0992,2.1008,2.1036,2.1076,2.1102,2.114,2.1216,2.1222,2.125,2.126,2.1267,2.1275,2.1317,2.133,2.1192,2.1192,2.1191,0,0,2.0817,2.0838,2.0864,2.0916,2.0937,2.098,2.0942,2.0989,2.1022,2.0999,2.106,2.1073,2.1103,2.1174,2.1205,2.1187,2.1315,2.1275,2.1281,2.1284,2.1325,2.1338,2.1349,2.1196,2.1195,2.1194,0,0,2.0901,2.0921,2.0974,2.0996,2.1028,2.1035,2.1048,2.1076,2.1084,2.1145,2.1129,2.1168,2.1237,2.1259,2.128,2.1375,2.136,2.1387,2.1436,2.1477,2.1488,2.1498,2.1532,2.1544,2.1395,2.1395,2.1395,0,2.0939,2.1004,2.1003,2.1052,2.1076,2.1059,2.1113,2.1134,2.1176,2.1193,2.1172,2.1259,2.1278,2.1354,2.1378,2.1395,2.141,2.1383,2.1487,2.1496,2.1505,2.1538,2.1551,2.1398,2.1398,2.1397,2.1397,0,2.1049,2.1095,2.1134,2.1176,2.1204,2.1256,2.1263,2.1292,2.1288,2.1297,2.136,2.1383,2.1425,2.1443,2.1439,2.1519,2.1507,2.1486,2.1448,2.1522,2.1552,2.1564,2.1402,2.1401,2.14,2.1399,0,0,2.1155,2.1198,2.1213,2.1232,2.1267,2.1302,2.1353,2.1396,2.1421,2.1451,2.1494,2.1554,2.1536,2.1559,2.1558,2.1594,2.1669,2.1569,2.157,2.1587,2.1759,2.1774,2.1788,2.166,2.1662,2.1664,2.1756,0,2.1242,2.1331,2.1333,2.1416,2.1458,2.1443,2.1488,2.1515,2.1525,2.1563,2.1574,2.1617,2.1589,2.1604,2.1639,2.1652,2.1703,2.1646,2.17,2.1702,2.1692,2.1804,2.1819,2.1905,2.1768,2.177,2.1772,0,2.1354,2.1389,2.1476,2.1506,2.1524,2.1564,2.1604,2.164,2.167,2.1675,2.1703,2.1696,2.1749,2.171,2.1783,2.1744,2.1767,2.1777,2.178,2.1785,2.174,2.1811,2.1932,2.1945,2.179,2.1789,2.1788,0,2.1423,2.1492,2.1553,2.157,2.1607,2.1636,2.1652,2.168,2.1706,2.1741,2.1758,2.1798,2.1821,2.1852,2.1857,2.1829,2.1931,2.1892,2.1937,2.1937,2.1958,2.1956,2.2084,2.1974,2.1974,2.1973,2.1973,0,2.1519,2.1573,2.1585,2.1622,2.1682,2.1685,2.1744,2.1758,2.1784,2.1824,2.1814,2.1852,2.1857,2.1897,2.1901,2.1961,2.1971,2.1977,2.1977,2.1978,2.1977,2.1992,2.1986,2.1977,2.1976,2.1975,2.1975,0,2.1605,2.1616,2.1681,2.1711,2.172,2.1763,2.1789,2.1825,2.1835,2.1887,2.1899,2.1915,2.1961,2.197,2.2024,2.2027,2.2099,2.2094,2.2089,2.2088,2.2132,2.2128,2.2273,2.2293,2.217,2.2171,2.2172,0,2.1666,2.1707,2.1742,2.1768,2.1786,2.1829,2.1856,2.186,2.1889,2.1927,2.1959,2.2005,2.2041,2.2116,2.2132,2.2174,2.217,2.2218,2.2176,2.2175,2.217,2.2167,2.2172,2.2225,2.2227,2.2228,2.2229,0,2.1771,2.1775,2.1814,2.1855,2.1888,2.1921,2.1951,2.1974,2.1983,2.2015,2.2063,2.2091,2.2148,2.2193,2.2235,2.2252,2.2243,2.2242,2.2255,2.2255,2.225,2.2253,2.2111,2.2238,2.2238,2.2237,2.2236,2.2236,2.1846,2.1883,2.1913,2.1957,2.1982,2.2011,2.2047,2.2063,2.2102,2.2149,2.2149,2.2201,2.2232,2.2288,2.2308,2.2349,2.2334,2.2352,2.2356,2.2361,2.2365,2.2245,2.2357,2.2357,2.2357,2.2356,2.2356,0,2.1952,2.1971,2.2012,2.2056,2.2091,2.208,2.2114,2.2144,2.219,2.222,2.2256,2.2312,2.2356,2.2377,2.2421,2.245,2.2447,2.2462,2.2459,2.2463,2.2376,2.2361,2.2464,2.2464,2.2464,2.2464,2.2464,2.2464,2.201,2.2071,2.2079,2.2152,2.2171,2.2223,2.2243,2.2271,2.2295,2.2357,2.2394,2.2408,2.2434,2.248,2.2521,2.2526,2.2543,2.256,2.2563,2.248,2.2469,2.2459,2.2445,2.2563,2.2564,2.2646,2.2647,2.2648]},{"header":{"parameterUnit":"m.s-1","parameterCategory":1,"la1":30.2991,"la2":30.254,"lo1":-89.0895,"lo2":-89.0444,"dx":0.0017,"dy":0.0017,"nx":28,"ny":28,"refTime":"2022-12-14T15:00:00:Z","depth":0,"parameterNumber":3,"parameterNumberName":"V-component_of_WINDS"},"data":[0,0,0,0,0,0,0,0,0,0,0,0,0,0,0,0,0,0,0,0,0,0,0,0,0,0,0,0,0,0,0,0,0,0,0,0,0,0,0,0,0,0,0,0,0,0,0,0,0,0,0,0,0,0,0,0,0,0,-3.2461,-3.2463,0,-3.2609,-3.2611,-3.2612,-3.259,-3.2587,-3.2585,-3.2582,-3.2733,-3.2739,-3.2745,0,0,0,0,0,0,0,0,0,0,0,0,0,-3.2159,-3.2164,-3.2461,-3.2463,-3.2465,-3.2609,-3.2611,-3.2613,-3.259,-3.2587,-3.2584,-3.2581,-3.2731,-3.2738,-3.2746,0,0,0,0,0,0,0,0,0,0,0,0,0,-3.2297,-3.2166,-3.2461,-3.2471,-3.2473,-3.2608,-3.2611,-3.2613,-3.2591,-3.2587,-3.2583,-3.258,-3.2728,-3.2737,-3.2747,-3.2881,0,0,-3.2776,-3.278,0,0,0,0,0,0,0,0,-3.2289,-3.2308,-3.2467,-3.247,-3.2473,-3.2577,-3.2559,-3.2703,-3.2592,-3.2546,-3.2582,-3.2578,-3.2684,-3.2697,-3.2733,-3.2888,-3.2894,-3.2777,-3.2782,-3.2786,-3.2789,0,0,0,0,0,0,0,-3.2279,-3.2301,-3.2519,-3.247,-3.2473,-3.2468,-3.2483,-3.2586,-3.2634,-3.255,-3.2548,-3.2566,-3.2685,-3.2724,-3.2736,-3.2896,-3.2776,-3.2785,-3.2791,-3.2794,-3.3169,-3.3173,0,0,0,0,0,0,-3.2267,-3.2293,-3.2515,-3.2524,-3.237,-3.2476,-3.2493,-3.2547,-3.2633,-3.2642,-3.2569,-3.2565,-3.2709,-3.2725,-3.2741,-3.2904,-3.2786,-3.2795,-3.2801,-3.3165,-3.317,-3.3175,0,0,0,0,0,0,-3.2261,-3.2287,-3.2509,-3.2408,-3.2436,-3.2485,-3.2546,-3.2552,-3.2591,-3.2648,-3.2656,-3.26,-3.2707,-3.2728,-3.2846,-3.2909,-3.28,-3.2808,-3.316,-3.3166,-3.3172,-3.323,0,0,0,0,0,0,-3.2252,-3.2285,-3.2336,-3.241,-3.2442,-3.2612,-3.255,-3.2558,-3.2608,-3.2603,-3.2679,-3.2688,-3.2705,-3.2832,-3.2856,-3.292,-3.2816,-3.3154,-3.3163,-3.317,-3.3223,-3.3238,-3.325,0,0,0,0,0,-3.2241,-3.2346,-3.2339,-3.2366,-3.2507,-3.2615,-3.2634,-3.2652,-3.2613,-3.2665,-3.2702,-3.2686,-3.2898,-3.2845,-3.2871,-3.2939,-3.3151,-3.316,-3.317,-3.3217,-3.3235,-3.325,0,0,0,0,0,0,-3.2279,-3.2356,-3.2349,-3.2481,-3.2542,-3.2611,-3.2678,-3.267,-3.2743,-3.2736,-3.2755,-3.2772,-3.2892,-3.2927,-3.2866,-3.3073,-3.3019,-3.3034,-3.3046,-3.3063,-3.3077,-3.3066,-3.2824,0,0,0,0,0,-3.2303,-3.2384,-3.2447,-3.2558,-3.2589,-3.2628,-3.2676,-3.2685,-3.2748,-3.2774,-3.2819,-3.2881,-3.2962,-3.3014,-3.3092,-3.3228,-3.3244,-3.3288,-3.3301,-3.3312,-3.3325,-3.34,-3.342,-3.3206,-3.3206,-3.3206,0,0,-3.2352,-3.2405,-3.2455,-3.2567,-3.2615,-3.2699,-3.265,-3.2741,-3.2803,-3.2787,-3.2902,-3.2938,-3.3008,-3.3136,-3.3194,-3.3169,-3.3388,-3.3324,-3.3333,-3.334,-3.3412,-3.3432,-3.345,-3.3212,-3.3211,-3.321,0,0,-3.2486,-3.2534,-3.2631,-3.268,-3.2754,-3.278,-3.2803,-3.2874,-3.2897,-3.3012,-3.3003,-3.3077,-3.3216,-3.3266,-3.331,-3.3464,-3.3452,-3.3488,-3.356,-3.3632,-3.3649,-3.3664,-3.3719,-3.3738,-3.3501,-3.3501,-3.3501,0,-3.2538,-3.2664,-3.2682,-3.2774,-3.2824,-3.2814,-3.2912,-3.2959,-3.3054,-3.3089,-3.3059,-3.3233,-3.328,-3.3419,-3.3457,-3.3493,-3.352,-3.3479,-3.3645,-3.3661,-3.3675,-3.3727,-3.3748,-3.3505,-3.3505,-3.3504,-3.3504,0,-3.2725,-3.2813,-3.2883,-3.2975,-3.3032,-3.3127,-3.3159,-3.3215,-3.3219,-3.3248,-3.3365,-3.3421,-3.351,-3.3544,-3.3548,-3.3684,-3.3666,-3.3641,-3.3587,-3.3699,-3.3748,-3.3769,-3.3511,-3.3509,-3.3508,-3.3507,0,0,-3.2886,-3.2987,-3.3013,-3.3054,-3.3135,-3.3203,-3.3298,-3.3385,-3.3432,-3.3498,-3.3578,-3.3696,-3.3673,-3.3723,-3.3733,-3.3797,-3.3915,-3.3764,-3.3766,-3.379,-3.4068,-3.4086,-3.4109,-3.3907,-3.3911,-3.3914,-3.4062,0,-3.3027,-3.3194,-3.3213,-3.3362,-3.3443,-3.3435,-3.3518,-3.3576,-3.3606,-3.3679,-3.3711,-3.3794,-3.3758,-3.3788,-3.385,-3.3887,-3.3971,-3.3877,-3.3981,-3.3985,-3.3964,-3.4135,-3.4155,-3.4292,-3.4081,-3.4085,-3.4087,0,-3.3214,-3.3286,-3.3443,-3.3513,-3.3547,-3.3621,-3.3702,-3.3773,-3.3839,-3.3855,-3.3912,-3.3914,-3.4011,-3.3953,-3.4088,-3.4023,-3.4067,-3.4092,-3.4098,-3.4108,-3.4043,-3.415,-3.4336,-3.4356,-3.4118,-3.4115,-3.4113,0,-3.3315,-3.3451,-3.3563,-3.3599,-3.3683,-3.3735,-3.3773,-3.3835,-3.3886,-3.3957,-3.3991,-3.4072,-3.4117,-3.418,-3.4203,-3.4159,-3.4337,-3.4281,-3.4353,-3.4353,-3.4391,-3.4388,-3.4586,-3.442,-3.4419,-3.4419,-3.4419,0,-3.3471,-3.3567,-3.361,-3.3678,-3.3786,-3.3807,-3.3913,-3.3948,-3.4004,-3.4079,-3.4077,-3.4148,-3.4175,-3.425,-3.427,-3.4378,-3.4398,-3.4414,-3.4418,-3.4415,-3.4413,-3.4444,-3.4435,-3.4424,-3.4423,-3.4422,-3.4421,0,-3.3603,-3.3635,-3.3756,-3.3826,-3.3846,-3.3922,-3.3982,-3.4048,-3.4076,-3.4172,-3.4195,-3.424,-3.4329,-3.4359,-3.4466,-3.4479,-3.4605,-3.4601,-3.4583,-3.4583,-3.4654,-3.4647,-3.4879,-3.491,-3.4723,-3.4725,-3.4726,0,-3.37,-3.3774,-3.3852,-3.3902,-3.3941,-3.4023,-3.4075,-3.4098,-3.4153,-3.4234,-3.429,-3.4378,-3.4449,-3.4591,-3.4633,-3.4715,-3.4712,-3.4788,-3.4725,-3.4719,-3.4714,-3.4709,-3.4716,-3.48,-3.4802,-3.4803,-3.4805,0,-3.3869,-3.3881,-3.3956,-3.4038,-3.4101,-3.4166,-3.4229,-3.427,-3.4303,-3.4364,-3.4455,-3.451,-3.462,-3.4707,-3.479,-3.4829,-3.4823,-3.4824,-3.4845,-3.4842,-3.4829,-3.4837,-3.4615,-3.4819,-3.4817,-3.4816,-3.4816,-3.4815,-3.3986,-3.4052,-3.4117,-3.4201,-3.4251,-3.431,-3.4376,-3.4413,-3.4489,-3.458,-3.4589,-3.4686,-3.4751,-3.4862,-3.4905,-3.4981,-3.496,-3.499,-3.4998,-3.5005,-3.5011,-3.4817,-3.4996,-3.4996,-3.4996,-3.4995,-3.4995,0,-3.4155,-3.4196,-3.4274,-3.4362,-3.4429,-3.4417,-3.4486,-3.4543,-3.4629,-3.4689,-3.476,-3.4864,-3.4948,-3.4997,-3.5082,-3.5134,-3.5133,-3.5155,-3.5151,-3.516,-3.5025,-3.4998,-3.5154,-3.5154,-3.5154,-3.5154,-3.5154,-3.5154,-3.425,-3.4361,-3.4381,-3.4516,-3.4557,-3.4653,-3.4693,-3.4748,-3.4796,-3.4912,-3.4983,-3.5014,-3.507,-3.5159,-3.5236,-3.5248,-3.5279,-3.5304,-3.5314,-3.5186,-3.517,-3.5154,-3.5129,-3.531,-3.5311,-3.5443,-3.5444,-3.5445]}]]